(°C)
-10°
-9°
-7°
-6°
-5°
-5°
-5°
(°C)
-16°
-15°
-14°
-13°
-12°
-12°
-12°
J
J
J
J
J
J
J
(km/h)
14-32
15-33
16-37
17-38
17-39
17-38
18-41
(mm)
0
0
0
0
0
0
0
(%)
0
0
0
0
0
0
0

Sluneční výška

/ 9.2°
sun-icon
UV 0
09:29
17:08
Ubývající srpek (334°)
06:17
16:02

METAR pro 55.03°S 82.6°V (UNNT)

Čas Podmínky Teplota/
Rosný bod
Vítr Viditelnost Počasí Oblaky Tlak Změna Nezpracované
VFR °C / °C 150º 10kt >10km - Clouds and Visibility OK 1022 No Significant change. Runway 25: Dry snow, 51-100% contamination with 1mm, friction coefficient 0.50. Runway 16: Compacted snow, 1-10% contamination with 1mm, friction coefficient 0.60. UNNT 020400Z 15005MPS CAVOK M10/M13 Q1022 R25/490150 R16/810160 NOSIG RMK QFE756/1008
VFR °C / °C 160º 10kt >10km - Clouds and Visibility OK 1022 No Significant change. Runway 25: Dry snow, 51-100% contamination with 1mm, friction coefficient 0.50. Runway 16: Compacted snow, 1-10% contamination with 1mm, friction coefficient 0.60. UNNT 020330Z 16005MPS CAVOK M11/M13 Q1022 R25/490150 R16/810160 NOSIG RMK QFE756/1009
VFR °C / °C 150º 8kt >10km - Clouds and Visibility OK 1022 No Significant change. Runway 25: Dry snow, 51-100% contamination with 1mm, friction coefficient 0.50. Runway 16: Compacted snow, 1-10% contamination with 1mm, friction coefficient 0.60. UNNT 020300Z 15004MPS CAVOK M12/M14 Q1022 R25/490150 R16/810160 NOSIG RMK QFE757/1009
VFR °C / °C 150º 6kt >10km - Clouds and Visibility OK 1022 No Significant change. Runway 25: Dry snow, 51-100% contamination with 1mm, friction coefficient 0.50. Runway 16: Dry snow, 51-100% contamination with 1mm, friction coefficient 0.50. UNNT 020200Z 15003MPS CAVOK M12/M14 Q1022 R25/490150 R16/490150 NOSIG RMK QFE757/1009
VFR °C / °C 130º 4kt >10km - Clouds and Visibility OK 1023 No Significant change. Runway 25: Dry snow, 51-100% contamination with 1mm, friction coefficient 0.50. Runway 16: Dry snow, 51-100% contamination with 1mm, friction coefficient 0.50. UNNT 020130Z 13002MPS CAVOK M12/M14 Q1023 R25/490150 R16/490150 NOSIG RMK QFE757/1009
VFR °C / °C 160º 8kt >10km - Clouds and Visibility OK 1023 No Significant change. Runway 25: Dry snow, 51-100% contamination with 1mm, friction coefficient 0.50. Runway 16: Dry snow, 51-100% contamination with 1mm, friction coefficient 0.50. UNNT 020100Z 16004MPS CAVOK M11/M13 Q1023 R25/490150 R16/490150 NOSIG RMK QFE757/1009
VFR °C / °C 160º 8kt >10km - Clouds and Visibility OK 1023 No Significant change. Runway 25: Dry snow, 51-100% contamination with 1mm, friction coefficient 0.50. Runway 16: Dry snow, 51-100% contamination with 1mm, friction coefficient 0.50. UNNT 020000Z 16004MPS CAVOK M11/M13 Q1023 R25/490150 R16/490150 NOSIG RMK QFE757/1009
VFR °C / °C 160º 8kt >10km - Clouds and Visibility OK 1023 No Significant change. Runway 25: Dry snow, 51-100% contamination with 1mm, friction coefficient 0.50. Runway 16: Dry snow, 51-100% contamination with 1mm, friction coefficient 0.50. UNNT 012330Z 16004MPS CAVOK M11/M13 Q1023 R25/490150 R16/490150 NOSIG RMK QFE757/1009
VFR °C / °C 160º 8kt >10km - Clouds and Visibility OK 1023 No Significant change. Runway 25: Compacted snow, 11-25% contamination with 1mm, friction coefficient 0.60. Runway 16: Compacted snow, 11-25% contamination with 1mm, friction coefficient 0.60. UNNT 012230Z 16004MPS CAVOK M11/M13 Q1023 R25/820160 R16/820160 NOSIG RMK QFE757/1010
VFR °C / °C 160º 10kt >10km - Clouds and Visibility OK 1023 No Significant change. Runway 25: Compacted snow, 11-25% contamination with 1mm, friction coefficient 0.60. Runway 16: Compacted snow, 11-25% contamination with 1mm, friction coefficient 0.60. UNNT 012200Z 16005MPS CAVOK M10/M12 Q1023 R25/820160 R16/820160 NOSIG RMK QFE757/1010
VFR °C / °C 160º 10kt >10km - Clouds and Visibility OK 1023 No Significant change. Runway 25: Compacted snow, 11-25% contamination with 1mm, friction coefficient 0.60. Runway 16: Compacted snow, 11-25% contamination with 1mm, friction coefficient 0.60. UNNT 012130Z 16005MPS CAVOK M11/M13 Q1023 R25/820160 R16/820160 NOSIG RMK QFE757/1010
VFR °C / °C 160º 10kt >10km - Clouds and Visibility OK 1024 No Significant change. Runway 25: Compacted snow, 11-25% contamination with 1mm, friction coefficient 0.60. Runway 16: Compacted snow, 11-25% contamination with 1mm, friction coefficient 0.60. UNNT 012100Z 16005MPS CAVOK M11/M13 Q1024 R25/820160 R16/820160 NOSIG RMK QFE758/1010
VFR °C / °C 170º 8kt >10km - Clouds and Visibility OK 1024 No Significant change. Runway 25: Compacted snow, 11-25% contamination with 1mm, friction coefficient 0.60. Runway 16: Compacted snow, 11-25% contamination with 1mm, friction coefficient 0.60. UNNT 012030Z 17004MPS CAVOK M11/M13 Q1024 R25/820160 R16/820160 NOSIG RMK QFE758/1011
VFR °C / °C 160º 8kt >10km - Clouds and Visibility OK 1024 No Significant change. Runway 25: Compacted snow, 11-25% contamination with 1mm, friction coefficient 0.60. Runway 16: Compacted snow, 11-25% contamination with 1mm, friction coefficient 0.60. UNNT 012000Z 16004MPS CAVOK M11/M13 Q1024 R25/820160 R16/820160 NOSIG RMK QFE758/1011
VFR °C / °C 160º 8kt >10km - Clouds and Visibility OK 1024 No Significant change. Runway 25: Compacted snow, 11-25% contamination with 1mm, friction coefficient 0.60. Runway 16: Compacted snow, 11-25% contamination with 1mm, friction coefficient 0.60. UNNT 011930Z 16004MPS CAVOK M11/M13 Q1024 R25/820160 R16/820160 NOSIG RMK QFE758/1011
VFR °C / °C 140º 6kt >10km - Clouds and Visibility OK 1024 No Significant change. Runway 25: Compacted snow, 11-25% contamination with 1mm, friction coefficient 0.60. Runway 16: Compacted snow, 11-25% contamination with 1mm, friction coefficient 0.60. UNNT 011900Z 14003MPS CAVOK M12/M13 Q1024 R25/820160 R16/820160 NOSIG RMK QFE758/1011
VFR °C / °C 170º 4kt >10km - Clouds and Visibility OK 1025 No Significant change. Runway 25: Compacted snow, 11-25% contamination with 1mm, friction coefficient 0.60. Runway 16: Compacted snow, 11-25% contamination with 1mm, friction coefficient 0.60. UNNT 011830Z 17002MPS CAVOK M10/M12 Q1025 R25/820160 R16/820160 NOSIG RMK QFE758/1011
VFR °C / °C 170º 6kt >10km - Clouds and Visibility OK 1025 No Significant change. Runway 25: Compacted snow, 11-25% contamination with 1mm, friction coefficient 0.60. Runway 16: Compacted snow, 11-25% contamination with 1mm, friction coefficient 0.60. UNNT 011800Z 17003MPS CAVOK M11/M13 Q1025 R25/820160 R16/820160 NOSIG RMK QFE758/1011
VFR °C / °C 170º 6kt >10km - Clouds and Visibility OK 1025 No Significant change. Runway 25: Compacted snow, 11-25% contamination with 1mm, friction coefficient 0.60. Runway 16: Compacted snow, 11-25% contamination with 1mm, friction coefficient 0.60. UNNT 011730Z 17003MPS CAVOK M11/M13 Q1025 R25/820160 R16/820160 NOSIG RMK QFE759/1012
VFR °C / °C 180º 8kt >10km - Clouds and Visibility OK 1025 No Significant change. Runway 25: Compacted snow, 11-25% contamination with 1mm, friction coefficient 0.60. Runway 16: Compacted snow, 11-25% contamination with 1mm, friction coefficient 0.60. UNNT 011700Z 18004MPS CAVOK M10/M13 Q1025 R25/820160 R16/820160 NOSIG RMK QFE759/1012
VFR °C / °C 180º 8kt >10km - Clouds and Visibility OK 1025 No Significant change. Runway 25: Compacted snow, 11-25% contamination with 1mm, friction coefficient 0.60. Runway 16: Compacted snow, 11-25% contamination with 1mm, friction coefficient 0.60. UNNT 011630Z 18004MPS CAVOK M10/M13 Q1025 R25/820160 R16/820160 NOSIG RMK QFE759/1012
VFR °C / °C 180º 8kt >10km - Clouds and Visibility OK 1025 No Significant change. Runway 25: Compacted snow, 11-25% contamination with 1mm, friction coefficient 0.60. Runway 16: Compacted snow, 11-25% contamination with 1mm, friction coefficient 0.60. UNNT 011600Z 18004MPS CAVOK M10/M13 Q1025 R25/820160 R16/820160 NOSIG RMK QFE759/1012
VFR °C / °C 190º 8kt >10km - Clouds and Visibility OK 1025 No Significant change. Runway 25: Compacted snow, 11-25% contamination with 1mm, friction coefficient 0.60. Runway 16: Compacted snow, 11-25% contamination with 1mm, friction coefficient 0.60. UNNT 011530Z 19004MPS CAVOK M10/M13 Q1025 R25/820160 R16/820160 NOSIG RMK QFE759/1012
VFR °C / °C 190º 8kt >10km - Clouds and Visibility OK 1026 No Significant change. Runway 25: Compacted snow, 11-25% contamination with 1mm, friction coefficient 0.60. Runway 16: Compacted snow, 11-25% contamination with 1mm, friction coefficient 0.60. UNNT 011500Z 19004MPS CAVOK M10/M13 Q1026 R25/820160 R16/820160 NOSIG RMK QFE759/1012

VFR

°C / °C

[Víc]
Vítr 150º 10kt
Viditelnost >10km
Počasí -
Oblaky Clouds and Visibility OK
Tlak 1022
Změna No Significant change. Runway 25: Dry snow, 51-100% contamination with 1mm, friction coefficient 0.50. Runway 16: Compacted snow, 1-10% contamination with 1mm, friction coefficient 0.60.
Nezpracované UNNT 020400Z 15005MPS CAVOK M10/M13 Q1022 R25/490150 R16/810160 NOSIG RMK QFE756/1008

VFR

°C / °C

[Víc]
Vítr 160º 10kt
Viditelnost >10km
Počasí -
Oblaky Clouds and Visibility OK
Tlak 1022
Změna No Significant change. Runway 25: Dry snow, 51-100% contamination with 1mm, friction coefficient 0.50. Runway 16: Compacted snow, 1-10% contamination with 1mm, friction coefficient 0.60.
Nezpracované UNNT 020330Z 16005MPS CAVOK M11/M13 Q1022 R25/490150 R16/810160 NOSIG RMK QFE756/1009

VFR

°C / °C

[Víc]
Vítr 150º 8kt
Viditelnost >10km
Počasí -
Oblaky Clouds and Visibility OK
Tlak 1022
Změna No Significant change. Runway 25: Dry snow, 51-100% contamination with 1mm, friction coefficient 0.50. Runway 16: Compacted snow, 1-10% contamination with 1mm, friction coefficient 0.60.
Nezpracované UNNT 020300Z 15004MPS CAVOK M12/M14 Q1022 R25/490150 R16/810160 NOSIG RMK QFE757/1009

VFR

°C / °C

[Víc]
Vítr 150º 6kt
Viditelnost >10km
Počasí -
Oblaky Clouds and Visibility OK
Tlak 1022
Změna No Significant change. Runway 25: Dry snow, 51-100% contamination with 1mm, friction coefficient 0.50. Runway 16: Dry snow, 51-100% contamination with 1mm, friction coefficient 0.50.
Nezpracované UNNT 020200Z 15003MPS CAVOK M12/M14 Q1022 R25/490150 R16/490150 NOSIG RMK QFE757/1009

VFR

°C / °C

[Víc]
Vítr 130º 4kt
Viditelnost >10km
Počasí -
Oblaky Clouds and Visibility OK
Tlak 1023
Změna No Significant change. Runway 25: Dry snow, 51-100% contamination with 1mm, friction coefficient 0.50. Runway 16: Dry snow, 51-100% contamination with 1mm, friction coefficient 0.50.
Nezpracované UNNT 020130Z 13002MPS CAVOK M12/M14 Q1023 R25/490150 R16/490150 NOSIG RMK QFE757/1009

VFR

°C / °C

[Víc]
Vítr 160º 8kt
Viditelnost >10km
Počasí -
Oblaky Clouds and Visibility OK
Tlak 1023
Změna No Significant change. Runway 25: Dry snow, 51-100% contamination with 1mm, friction coefficient 0.50. Runway 16: Dry snow, 51-100% contamination with 1mm, friction coefficient 0.50.
Nezpracované UNNT 020100Z 16004MPS CAVOK M11/M13 Q1023 R25/490150 R16/490150 NOSIG RMK QFE757/1009

VFR

°C / °C

[Víc]
Vítr 160º 8kt
Viditelnost >10km
Počasí -
Oblaky Clouds and Visibility OK
Tlak 1023
Změna No Significant change. Runway 25: Dry snow, 51-100% contamination with 1mm, friction coefficient 0.50. Runway 16: Dry snow, 51-100% contamination with 1mm, friction coefficient 0.50.
Nezpracované UNNT 020000Z 16004MPS CAVOK M11/M13 Q1023 R25/490150 R16/490150 NOSIG RMK QFE757/1009

VFR

°C / °C

[Víc]
Vítr 160º 8kt
Viditelnost >10km
Počasí -
Oblaky Clouds and Visibility OK
Tlak 1023
Změna No Significant change. Runway 25: Dry snow, 51-100% contamination with 1mm, friction coefficient 0.50. Runway 16: Dry snow, 51-100% contamination with 1mm, friction coefficient 0.50.
Nezpracované UNNT 012330Z 16004MPS CAVOK M11/M13 Q1023 R25/490150 R16/490150 NOSIG RMK QFE757/1009

VFR

°C / °C

[Víc]
Vítr 160º 8kt
Viditelnost >10km
Počasí -
Oblaky Clouds and Visibility OK
Tlak 1023
Změna No Significant change. Runway 25: Compacted snow, 11-25% contamination with 1mm, friction coefficient 0.60. Runway 16: Compacted snow, 11-25% contamination with 1mm, friction coefficient 0.60.
Nezpracované UNNT 012230Z 16004MPS CAVOK M11/M13 Q1023 R25/820160 R16/820160 NOSIG RMK QFE757/1010

VFR

°C / °C

[Víc]
Vítr 160º 10kt
Viditelnost >10km
Počasí -
Oblaky Clouds and Visibility OK
Tlak 1023
Změna No Significant change. Runway 25: Compacted snow, 11-25% contamination with 1mm, friction coefficient 0.60. Runway 16: Compacted snow, 11-25% contamination with 1mm, friction coefficient 0.60.
Nezpracované UNNT 012200Z 16005MPS CAVOK M10/M12 Q1023 R25/820160 R16/820160 NOSIG RMK QFE757/1010

VFR

°C / °C

[Víc]
Vítr 160º 10kt
Viditelnost >10km
Počasí -
Oblaky Clouds and Visibility OK
Tlak 1023
Změna No Significant change. Runway 25: Compacted snow, 11-25% contamination with 1mm, friction coefficient 0.60. Runway 16: Compacted snow, 11-25% contamination with 1mm, friction coefficient 0.60.
Nezpracované UNNT 012130Z 16005MPS CAVOK M11/M13 Q1023 R25/820160 R16/820160 NOSIG RMK QFE757/1010

VFR

°C / °C

[Víc]
Vítr 160º 10kt
Viditelnost >10km
Počasí -
Oblaky Clouds and Visibility OK
Tlak 1024
Změna No Significant change. Runway 25: Compacted snow, 11-25% contamination with 1mm, friction coefficient 0.60. Runway 16: Compacted snow, 11-25% contamination with 1mm, friction coefficient 0.60.
Nezpracované UNNT 012100Z 16005MPS CAVOK M11/M13 Q1024 R25/820160 R16/820160 NOSIG RMK QFE758/1010

VFR

°C / °C

[Víc]
Vítr 170º 8kt
Viditelnost >10km
Počasí -
Oblaky Clouds and Visibility OK
Tlak 1024
Změna No Significant change. Runway 25: Compacted snow, 11-25% contamination with 1mm, friction coefficient 0.60. Runway 16: Compacted snow, 11-25% contamination with 1mm, friction coefficient 0.60.
Nezpracované UNNT 012030Z 17004MPS CAVOK M11/M13 Q1024 R25/820160 R16/820160 NOSIG RMK QFE758/1011

VFR

°C / °C

[Víc]
Vítr 160º 8kt
Viditelnost >10km
Počasí -
Oblaky Clouds and Visibility OK
Tlak 1024
Změna No Significant change. Runway 25: Compacted snow, 11-25% contamination with 1mm, friction coefficient 0.60. Runway 16: Compacted snow, 11-25% contamination with 1mm, friction coefficient 0.60.
Nezpracované UNNT 012000Z 16004MPS CAVOK M11/M13 Q1024 R25/820160 R16/820160 NOSIG RMK QFE758/1011

VFR

°C / °C

[Víc]
Vítr 160º 8kt
Viditelnost >10km
Počasí -
Oblaky Clouds and Visibility OK
Tlak 1024
Změna No Significant change. Runway 25: Compacted snow, 11-25% contamination with 1mm, friction coefficient 0.60. Runway 16: Compacted snow, 11-25% contamination with 1mm, friction coefficient 0.60.
Nezpracované UNNT 011930Z 16004MPS CAVOK M11/M13 Q1024 R25/820160 R16/820160 NOSIG RMK QFE758/1011

VFR

°C / °C

[Víc]
Vítr 140º 6kt
Viditelnost >10km
Počasí -
Oblaky Clouds and Visibility OK
Tlak 1024
Změna No Significant change. Runway 25: Compacted snow, 11-25% contamination with 1mm, friction coefficient 0.60. Runway 16: Compacted snow, 11-25% contamination with 1mm, friction coefficient 0.60.
Nezpracované UNNT 011900Z 14003MPS CAVOK M12/M13 Q1024 R25/820160 R16/820160 NOSIG RMK QFE758/1011

VFR

°C / °C

[Víc]
Vítr 170º 4kt
Viditelnost >10km
Počasí -
Oblaky Clouds and Visibility OK
Tlak 1025
Změna No Significant change. Runway 25: Compacted snow, 11-25% contamination with 1mm, friction coefficient 0.60. Runway 16: Compacted snow, 11-25% contamination with 1mm, friction coefficient 0.60.
Nezpracované UNNT 011830Z 17002MPS CAVOK M10/M12 Q1025 R25/820160 R16/820160 NOSIG RMK QFE758/1011

VFR

°C / °C

[Víc]
Vítr 170º 6kt
Viditelnost >10km
Počasí -
Oblaky Clouds and Visibility OK
Tlak 1025
Změna No Significant change. Runway 25: Compacted snow, 11-25% contamination with 1mm, friction coefficient 0.60. Runway 16: Compacted snow, 11-25% contamination with 1mm, friction coefficient 0.60.
Nezpracované UNNT 011800Z 17003MPS CAVOK M11/M13 Q1025 R25/820160 R16/820160 NOSIG RMK QFE758/1011

VFR

°C / °C

[Víc]
Vítr 170º 6kt
Viditelnost >10km
Počasí -
Oblaky Clouds and Visibility OK
Tlak 1025
Změna No Significant change. Runway 25: Compacted snow, 11-25% contamination with 1mm, friction coefficient 0.60. Runway 16: Compacted snow, 11-25% contamination with 1mm, friction coefficient 0.60.
Nezpracované UNNT 011730Z 17003MPS CAVOK M11/M13 Q1025 R25/820160 R16/820160 NOSIG RMK QFE759/1012

VFR

°C / °C

[Víc]
Vítr 180º 8kt
Viditelnost >10km
Počasí -
Oblaky Clouds and Visibility OK
Tlak 1025
Změna No Significant change. Runway 25: Compacted snow, 11-25% contamination with 1mm, friction coefficient 0.60. Runway 16: Compacted snow, 11-25% contamination with 1mm, friction coefficient 0.60.
Nezpracované UNNT 011700Z 18004MPS CAVOK M10/M13 Q1025 R25/820160 R16/820160 NOSIG RMK QFE759/1012

VFR

°C / °C

[Víc]
Vítr 180º 8kt
Viditelnost >10km
Počasí -
Oblaky Clouds and Visibility OK
Tlak 1025
Změna No Significant change. Runway 25: Compacted snow, 11-25% contamination with 1mm, friction coefficient 0.60. Runway 16: Compacted snow, 11-25% contamination with 1mm, friction coefficient 0.60.
Nezpracované UNNT 011630Z 18004MPS CAVOK M10/M13 Q1025 R25/820160 R16/820160 NOSIG RMK QFE759/1012

VFR

°C / °C

[Víc]
Vítr 180º 8kt
Viditelnost >10km
Počasí -
Oblaky Clouds and Visibility OK
Tlak 1025
Změna No Significant change. Runway 25: Compacted snow, 11-25% contamination with 1mm, friction coefficient 0.60. Runway 16: Compacted snow, 11-25% contamination with 1mm, friction coefficient 0.60.
Nezpracované UNNT 011600Z 18004MPS CAVOK M10/M13 Q1025 R25/820160 R16/820160 NOSIG RMK QFE759/1012

VFR

°C / °C

[Víc]
Vítr 190º 8kt
Viditelnost >10km
Počasí -
Oblaky Clouds and Visibility OK
Tlak 1025
Změna No Significant change. Runway 25: Compacted snow, 11-25% contamination with 1mm, friction coefficient 0.60. Runway 16: Compacted snow, 11-25% contamination with 1mm, friction coefficient 0.60.
Nezpracované UNNT 011530Z 19004MPS CAVOK M10/M13 Q1025 R25/820160 R16/820160 NOSIG RMK QFE759/1012

VFR

°C / °C

[Víc]
Vítr 190º 8kt
Viditelnost >10km
Počasí -
Oblaky Clouds and Visibility OK
Tlak 1026
Změna No Significant change. Runway 25: Compacted snow, 11-25% contamination with 1mm, friction coefficient 0.60. Runway 16: Compacted snow, 11-25% contamination with 1mm, friction coefficient 0.60.
Nezpracované UNNT 011500Z 19004MPS CAVOK M10/M13 Q1026 R25/820160 R16/820160 NOSIG RMK QFE759/1012

TAF pro 55.03°S 82.6°V (UNNT)

From till


From till Wind 160º 6kt. Gust 16kt. Visibility 8000m. Scattered Clouds 4000ft.
Becoming from till Wind 170º 16kt. Gust 35kt. Visibility 8000m. Scattered Clouds 4000ft.

Nezpracované: TAF UNNT 020200Z 0203/0303 16003G08MPS 8000 SCT040 BECMG 0210/0212 17008G18MPS

Aktuální snímky ze satelitu a srážky pro 55.03°S 82.6°V

Značka polohy je umístěna na 55.03°S 82.6°V. [Víc]

Satelitní snímek v reálném čase kombinuje viditelné světlo během dne s infračerveným zářením během noci. V noci není obraz tmavý, protože infračervené záření dokáže detekovat teplotní rozdíly. Nízká oblačnost a mlha se bohužel těžko odlišují od pozemních teplot, a proto mohou být během noci téměř neviditelné. Satelitní snímky z Meteosatu pro Evropu jsou aktualizovány v reálném čase každých 5 minut. Snímky z GOES-16/GOES-17 (Severní a Jižní Amerika) a Himawari (Asie) jsou aktualizovány) každých 10 minut.

Copyright 2021 EUMETSAT / meteoblue. / Copyright 2021 meteoblue

Radar a krátkodobá předpověď srážek pro 55.03°S 82.6°V

Mrholení
Slabé
Střední
Silné
Velmi silné
Kroupy

Značka lokality je umístněna na 55.03°S 82.6°V. Tato animace ukazuje srážky zaznamenané radarem za poslední hodinu a také 1h předpověď. Mrholení nebo slabé sněžení může být pro radar neviditelné. Intenzita srážek je barevně označena od světle modré po oranžovou.